KMOLAKE37 Weather Reports


time (UTC)temp
C
wind
direction
speed
KPH
gust
KPH
rain 1hr
cm
rain 24hr
cm
rain mn
cm
humidity
%
barometer
mb
20260510204534 22 288 1.6 8.0 0.00 0.81 0.00 36 1020.5
20260510203035 22 50 1.6 6.4 0.00 0.81 0.00 36 1020.2
20260510201539 21 281 3.2 8.0 0.00 0.81 0.00 38 1020.3
20260510200038 21 272 4.8 12.9 0.00 0.81 0.00 37 1020.4
20260510194534 21 71 1.6 6.4 0.00 0.81 0.00 39 1020.6
20260510193036 21 255 3.2 9.7 0.00 0.81 0.00 38 1020.5
20260510191534 21 7 3.2 11.3 0.00 0.81 0.00 38 1020.7
20260510190043 20 25 0.0 6.4 0.00 0.81 0.00 45 1020.6
20260510184540 19 239 1.6 4.8 0.00 0.81 0.00 45 1020.5
20260510183039 20 56 1.6 4.8 0.00 0.81 0.00 46 1020.5
20260510181536 21 77 0.0 6.4 0.00 0.81 0.00 43 1020.3
20260510180036 20 266 0.0 8.0 0.00 0.81 0.00 45 1020.2
20260510174531 19 0 0.0 4.8 0.00 0.81 0.00 48 1020.3
20260510173042 18 20 1.6 6.4 0.00 0.81 0.00 51 1020.6
20260510171537 18 6 1.6 8.0 0.00 0.81 0.00 52 1020.8
20260510170038 18 248 1.6 11.3 0.00 0.81 0.00 48 1020.7
20260510164539 17 281 1.6 6.4 0.00 0.81 0.00 62 1020.7
20260510163032 16 295 0.0 1.6 0.00 0.81 0.00 63 1020.7
20260510161535 16 0 0.0 1.6 0.00 0.81 0.00 65 1020.8
20260510160034 16 271 1.6 4.8 0.00 0.81 0.00 60 1021.0
20260510154539 16 338 1.6 8.0 0.00 0.81 0.00 65 1020.7
20260510153036 15 330 1.6 6.4 0.00 0.81 0.00 71 1020.7
20260510151537 15 271 3.2 4.8 0.00 0.81 0.00 70 1020.6
20260510150045 14 0 1.6 6.4 0.00 0.81 0.00 67 1020.3
20260510144551 14 220 1.6 6.4 0.00 0.81 0.00 69 1020.3
20260510143038 15 0 1.6 6.4 0.00 0.81 0.00 70 1019.8
20260510141537 15 252 0.0 9.7 0.00 0.81 0.00 69 1019.7
20260510140035 15 38 0.0 4.8 0.00 0.81 0.00 78 1019.5
20260510134539 14 139 0.0 6.4 0.00 0.81 0.00 83 1019.5
20260510133035 13 0 1.6 6.4 0.00 0.81 0.00 86 1019.2
20260510131537 12 0 0.0 4.8 0.00 0.81 0.00 94 1019.5
20260510130037 11 0 0.0 6.4 0.00 0.81 0.00 95 1018.9
20260510124546 11 0 0.0 0.0 0.00 0.81 0.00 95 1018.9
20260510123034 11 0 0.0 1.6 0.00 0.81 0.00 96 1018.6
20260510121538 10 0 0.0 1.6 0.00 0.81 0.00 96 1018.4
20260510120039 10 0 0.0 0.0 0.00 0.81 0.00 96 1018.2
20260510114540 10 0 0.0 0.0 0.00 0.81 0.00 96 1017.8
20260510113037 10 0 0.0 0.0 0.00 0.81 0.00 96 1017.6
20260510111546 10 0 0.0 0.0 0.00 0.81 0.00 96 1017.2
20260510110038 10 0 0.0 0.0 0.00 0.81 0.00 96 1017.1
20260510104546 11 0 0.0 0.0 0.00 0.81 0.00 96 1016.6
20260510103037 11 0 0.0 0.0 0.00 0.81 0.00 96 1016.5
20260510101535 11 0 0.0 0.0 0.00 0.81 0.00 96 1016.1
20260510100032 12 0 0.0 0.0 0.00 0.81 0.00 96 1015.8
20260510094540 12 0 0.0 1.6 0.00 0.81 0.00 96 1015.7
20260510093038 12 0 0.0 0.0 0.00 0.81 0.00 96 1015.6
20260510091537 12 0 0.0 0.0 0.00 0.81 0.00 96 1015.5
20260510090036 13 0 0.0 0.0 0.00 0.81 0.00 96 1015.3
20260510084535 13 0 0.0 0.0 0.00 0.81 0.00 96 1015.0
20260510083037 13 0 0.0 0.0 0.00 0.81 0.00 96 1014.4
20260510081542 13 0 0.0 0.0 0.00 0.81 0.00 96 1014.3
20260510080037 13 0 0.0 0.0 0.00 0.81 0.00 96 1013.8
20260510074536 13 337 0.0 0.0 0.00 0.81 0.00 95 1013.5
20260510073034 14 0 0.0 0.0 0.00 0.81 0.00 95 1013.7
20260510071535 14 0 0.0 0.0 0.00 0.81 0.00 95 1013.6
20260510070040 14 0 0.0 0.0 0.00 0.81 0.00 95 1013.5
20260510064537 14 0 0.0 0.0 0.00 0.81 0.00 95 1013.6
20260510063039 15 0 0.0 0.0 0.00 0.81 0.00 95 1013.4
20260510061538 15 0 0.0 0.0 0.00 0.81 0.00 95 1013.5
20260510060046 15 0 0.0 0.0 0.00 0.81 0.00 95 1013.6
20260510054533 15 0 0.0 1.6 0.03 0.81 0.00 95 1013.4
20260510053037 15 0 0.0 3.2 0.03 0.81 0.00 95 1013.2
20260510051545 15 0 0.0 1.6 0.03 0.81 0.00 94 1012.6
20260510050039 15 340 0.0 1.6 0.13 0.81 0.00 94 1013.0
20260510044538 15 342 0.0 1.6 0.15 0.79 0.79 94 1012.8
20260510043047 15 0 0.0 6.4 0.23 0.79 0.79 94 1012.5
20260510041538 16 71 1.6 6.4 0.30 0.79 0.79 93 1012.0
20260510040035 16 63 0.0 3.2 0.36 0.69 0.69 93 1012.9
20260510034543 16 0 0.0 6.4 0.64 0.66 0.64 92 1012.5
20260510033040 16 264 0.0 9.7 0.56 0.58 0.56 91 1013.1
20260510031555 16 147 3.2 19.3 0.48 0.51 0.48 90 1013.4
20260510030039 17 161 6.4 35.4 0.30 0.33 0.30 85 1013.2
20260510024538 18 249 14.5 40.2 0.00 0.53 0.00 74 1012.0
20260510023046 18 0 0.0 0.0 0.00 0.53 0.00 74 1010.0
20260510021541 18 0 0.0 0.0 0.00 0.53 0.00 73 1009.7
20260510020034 18 0 0.0 0.0 0.00 0.53 0.00 70 1009.6
20260510014534 19 0 0.0 0.0 0.00 0.94 0.00 67 1009.4
20260510013039 20 0 0.0 0.0 0.00 0.94 0.00 65 1009.0
20260510011548 20 0 0.0 0.0 0.00 0.94 0.00 62 1008.9
20260510010044 21 0 0.0 0.0 0.00 0.94 0.00 59 1009.0
20260510004534 22 0 0.0 0.0 0.00 0.99 0.00 54 1008.8
20260510003032 23 0 0.0 0.0 0.00 0.99 0.00 52 1008.7
20260510001538 24 0 0.0 0.0 0.00 0.99 0.00 48 1008.5
20260510000037 25 0 0.0 6.4 0.00 0.99 0.00 46 1008.5
20260509234536 26 0 0.0 3.2 0.00 1.02 0.00 45 1008.5
20260509233037 27 310 0.0 1.6 0.00 1.02 0.00 43 1008.5
20260509231541 28 0 0.0 1.6 0.00 1.02 0.00 45 1008.4
20260509230038 27 0 0.0 8.0 0.00 1.02 0.00 40 1008.3
20260509224534 27 328 1.6 9.7 0.00 1.02 0.00 39 1008.3
20260509223035 27 264 3.2 16.1 0.00 1.02 0.00 38 1008.3
20260509221539 27 264 3.2 9.7 0.00 1.02 0.00 39 1008.4
20260509220037 27 257 4.8 12.9 0.00 1.02 0.00 39 1008.2
20260509214535 27 273 3.2 9.7 0.00 1.02 0.00 39 1008.5
20260509213052 27 283 3.2 14.5 0.00 1.02 0.00 42 1008.4
20260509211605 27 313 4.8 16.1 0.00 1.02 0.00 38 1008.5
20260509210038 27 0 3.2 12.9 0.00 1.02 0.00 40 1008.5